RYR2VJ LIRN-EGSS

Flight info

Callsign RYR2VJ
Flight time 2h 23m
Altitude 36000
Route ALAXI DCT INSOX DCT RITEB DCT CERVI DCT IBODI DCT GOTED DCT TRO DCT CLM DCT KOPOR DCT SOSUN DCT SUBIP UM733 BANVA
Aircraft B738/M-SDE2E3FGHIRWXY/LB1

Departure

Time 2026-05-06 13:11
Airport Naples International Airport (LIRN)

Arrival

Time 2026-05-06 15:34
Airport London Stansted Airport (EGSS)
Time Latitude Longitude Altitude Speed Heading
2026-05-06 12:40 40.87843 14.28084 299 ft 0 kts 141°
2026-05-06 13:03 40.87853 14.28073 302 ft 4 kts 138°
2026-05-06 13:03 40.87872 14.28047 300 ft 4 kts 127°
2026-05-06 13:03 40.87885 14.28017 302 ft 4 kts 98°
2026-05-06 13:03 40.87882 14.27993 301 ft 1 kts 51°
2026-05-06 13:05 40.87891 14.28008 302 ft 8 kts 51°
2026-05-06 13:06 40.87947 14.28093 297 ft 15 kts 39°
2026-05-06 13:06 40.88035 14.28163 296 ft 16 kts 51°
2026-05-06 13:06 40.88064 14.28300 292 ft 16 kts 96°
2026-05-06 13:06 40.88051 14.28442 288 ft 15 kts 96°
2026-05-06 13:07 40.88042 14.28577 285 ft 15 kts 83°
2026-05-06 13:07 40.88098 14.28696 282 ft 17 kts 53°
2026-05-06 13:07 40.88186 14.28848 278 ft 23 kts 52°
2026-05-06 13:07 40.88287 14.29022 271 ft 24 kts 52°
2026-05-06 13:08 40.88391 14.29200 266 ft 24 kts 53°
2026-05-06 13:08 40.88489 14.29371 260 ft 23 kts 53°
2026-05-06 13:08 40.88584 14.29536 255 ft 22 kts 53°
2026-05-06 13:08 40.88676 14.29696 250 ft 22 kts 53°
2026-05-06 13:09 40.88765 14.29851 245 ft 21 kts 53°
2026-05-06 13:09 40.88847 14.29992 241 ft 19 kts 52°
2026-05-06 13:09 40.88929 14.30132 236 ft 20 kts 52°
2026-05-06 13:09 40.89022 14.30251 232 ft 17 kts
2026-05-06 13:10 40.89113 14.30185 231 ft 11 kts 289°
2026-05-06 13:10 40.89091 14.30108 237 ft 9 kts 239°
2026-05-06 13:10 40.89050 14.30019 238 ft 19 kts 238°
2026-05-06 13:10 40.88851 14.29599 250 ft 91 kts 238°
2026-05-06 13:11 40.88395 14.28643 285 ft 152 kts 238°
2026-05-06 13:11 40.87779 14.27401 800 ft 167 kts 231°
2026-05-06 13:11 40.86921 14.26395 1649 ft 167 kts 203°
2026-05-06 13:11 40.85799 14.26267 2405 ft 170 kts 163°
2026-05-06 13:12 40.84800 14.27118 3118 ft 173 kts 147°
2026-05-06 13:12 40.83822 14.28124 3697 ft 189 kts 136°
2026-05-06 13:12 40.82902 14.29543 3912 ft 214 kts 133°
2026-05-06 13:12 40.81887 14.31062 4243 ft 226 kts 135°
2026-05-06 13:13 40.80968 14.32804 4498 ft 247 kts 109°
2026-05-06 13:13 40.80950 14.35153 4738 ft 274 kts 71°
2026-05-06 13:13 40.82022 14.37276 5376 ft 281 kts 39°
2026-05-06 13:13 40.83721 14.38491 6175 ft 280 kts 12°
2026-05-06 13:14 40.85642 14.38650 6942 ft 277 kts 354°
2026-05-06 13:14 40.87585 14.38527 7622 ft 282 kts 354°
2026-05-06 13:14 40.89560 14.38431 8338 ft 285 kts 355°
2026-05-06 13:14 40.91556 14.38349 9055 ft 288 kts 352°
2026-05-06 13:15 40.93453 14.37637 9748 ft 284 kts 327°
2026-05-06 13:15 40.95041 14.36117 10372 ft 285 kts 317°
2026-05-06 13:15 40.96600 14.34381 10534 ft 307 kts 316°
2026-05-06 13:15 40.98273 14.32470 10730 ft 327 kts 316°
2026-05-06 13:16 41.00026 14.30469 11197 ft 336 kts 316°
2026-05-06 13:16 41.01808 14.28448 11834 ft 339 kts 316°
2026-05-06 13:16 41.03610 14.26415 12511 ft 342 kts 317°
2026-05-06 13:16 41.05439 14.24358 13174 ft 347 kts 317°
2026-05-06 13:17 41.07292 14.22278 13843 ft 351 kts 317°
2026-05-06 13:17 41.09163 14.20177 14486 ft 354 kts 317°
2026-05-06 13:17 41.11057 14.18051 15151 ft 357 kts 316°
2026-05-06 13:17 41.12961 14.15913 15804 ft 361 kts 316°
2026-05-06 13:18 41.14891 14.13744 16428 ft 365 kts 316°
2026-05-06 13:18 41.16840 14.11552 17048 ft 369 kts 316°
2026-05-06 13:18 41.18809 14.09334 17671 ft 373 kts 316°
2026-05-06 13:18 41.20774 14.07121 18271 ft 377 kts 316°
2026-05-06 13:19 41.22787 14.04851 18806 ft 381 kts 316°
2026-05-06 13:19 41.24814 14.02564 19369 ft 384 kts 316°
2026-05-06 13:19 41.26854 14.00261 19907 ft 386 kts 315°
2026-05-06 13:19 41.28910 13.97937 20431 ft 389 kts 315°
2026-05-06 13:20 41.30895 13.95493 20953 ft 390 kts 310°
2026-05-06 13:20 41.32784 13.92890 21479 ft 392 kts 309°
2026-05-06 13:20 41.34046 13.91093 21827 ft 394 kts 309°
2026-05-06 13:20 41.36519 13.87537 22500 ft 398 kts 308°
2026-05-06 13:21 41.38407 13.84825 23000 ft 400 kts 308°
2026-05-06 13:21 41.39694 13.82985 23337 ft 402 kts 309°
2026-05-06 13:21 41.41612 13.80253 23775 ft 406 kts 309°
2026-05-06 13:21 41.43523 13.77539 24194 ft 408 kts 309°
2026-05-06 13:22 41.45468 13.74782 24633 ft 409 kts 309°
2026-05-06 13:22 41.47423 13.72011 25049 ft 411 kts 308°
2026-05-06 13:22 41.49385 13.69228 25458 ft 413 kts 308°
2026-05-06 13:22 41.51362 13.66422 25855 ft 415 kts 308°
2026-05-06 13:23 41.53352 13.63593 26238 ft 418 kts 308°
2026-05-06 13:23 41.55344 13.60759 26635 ft 420 kts 308°
2026-05-06 13:23 41.57346 13.57909 27020 ft 422 kts 308°
2026-05-06 13:23 41.59359 13.55039 27396 ft 424 kts 308°
2026-05-06 13:24 41.61379 13.52157 27757 ft 426 kts 308°
2026-05-06 13:24 41.63411 13.49254 28111 ft 428 kts 308°
2026-05-06 13:24 41.65449 13.46339 28451 ft 430 kts 307°
2026-05-06 13:24 41.67498 13.43407 28797 ft 433 kts 307°
2026-05-06 13:25 41.69335 13.40777 29095 ft 435 kts 307°
2026-05-06 13:25 41.71372 13.37856 29424 ft 437 kts 307°
2026-05-06 13:25 41.73425 13.34909 29745 ft 439 kts 307°
2026-05-06 13:25 41.75507 13.31906 30046 ft 441 kts 307°
2026-05-06 13:26 41.77594 13.28885 30379 ft 441 kts 307°
2026-05-06 13:26 41.79674 13.25871 30804 ft 439 kts 307°
2026-05-06 13:26 41.81735 13.22884 31255 ft 436 kts 307°
2026-05-06 13:26 41.83907 13.20036 31644 ft 438 kts 311°
2026-05-06 13:27 41.86177 13.17309 31986 ft 438 kts 312°
2026-05-06 13:27 41.88469 13.14626 32263 ft 438 kts 312°
2026-05-06 13:27 41.90771 13.11949 32575 ft 437 kts 312°
2026-05-06 13:27 41.93057 13.09280 32992 ft 434 kts 312°
2026-05-06 13:28 41.95324 13.06615 33393 ft 432 kts 312°
2026-05-06 13:28 41.97574 13.03953 33742 ft 431 kts 311°
2026-05-06 13:28 41.99822 13.01282 34035 ft 430 kts 311°
2026-05-06 13:28 42.02062 12.98611 34285 ft 430 kts 311°
2026-05-06 13:29 42.04295 12.95943 34533 ft 430 kts 311°
2026-05-06 13:29 42.06533 12.93265 34771 ft 430 kts 311°
2026-05-06 13:29 42.08769 12.90589 34984 ft 430 kts 311°
2026-05-06 13:29 42.11003 12.87912 35203 ft 430 kts 311°
2026-05-06 13:30 42.13234 12.85238 35488 ft 428 kts 311°
2026-05-06 13:30 42.15430 12.82603 35733 ft 428 kts 311°
2026-05-06 13:30 42.17682 12.79897 35928 ft 428 kts 311°
2026-05-06 13:31 42.22140 12.74533 36009 ft 430 kts 311°
2026-05-06 13:31 42.26574 12.69189 36017 ft 429 kts 311°
2026-05-06 13:32 42.31020 12.63823 36009 ft 427 kts 311°
2026-05-06 13:32 42.35437 12.58477 36017 ft 426 kts 311°
2026-05-06 13:33 42.39838 12.53141 36011 ft 424 kts 311°
2026-05-06 13:33 42.44225 12.47812 35996 ft 424 kts 311°
2026-05-06 13:34 42.48612 12.42469 35992 ft 424 kts 310°
2026-05-06 13:34 42.52994 12.37122 35987 ft 426 kts 310°
2026-05-06 13:35 42.57424 12.31708 35991 ft 428 kts 310°
2026-05-06 13:35 42.61848 12.26290 35992 ft 429 kts 310°
2026-05-06 13:36 42.66286 12.20846 35986 ft 430 kts 310°
2026-05-06 13:36 42.70681 12.15433 35989 ft 428 kts 309°
2026-05-06 13:37 42.74997 12.09866 35986 ft 427 kts 308°
2026-05-06 13:37 42.79281 12.04231 35977 ft 428 kts 308°
2026-05-06 13:38 42.83574 11.98589 35964 ft 428 kts 308°
2026-05-06 13:38 42.87866 11.92957 35961 ft 428 kts 308°
2026-05-06 13:39 42.92156 11.87327 35974 ft 428 kts 308°
2026-05-06 13:39 42.96451 11.81680 35971 ft 428 kts 309°
2026-05-06 13:40 43.00743 11.76024 35960 ft 429 kts 309°
2026-05-06 13:40 43.05033 11.70360 35955 ft 429 kts 308°
2026-05-06 13:41 43.09314 11.64696 35951 ft 429 kts 308°
2026-05-06 13:41 43.13575 11.59048 35946 ft 428 kts 309°
2026-05-06 13:42 43.17845 11.53377 35944 ft 427 kts 309°
2026-05-06 13:42 43.22101 11.47712 35944 ft 426 kts 309°
2026-05-06 13:43 43.26353 11.42038 35937 ft 426 kts 309°
2026-05-06 13:43 43.30600 11.36361 35937 ft 426 kts 309°
2026-05-06 13:44 43.34848 11.30671 35934 ft 427 kts 309°
2026-05-06 13:44 43.39108 11.24952 35933 ft 428 kts 309°
2026-05-06 13:45 43.43373 11.19214 35937 ft 430 kts 309°
2026-05-06 13:45 43.49796 11.10553 35946 ft 431 kts 309°
2026-05-06 13:46 43.54088 11.04749 35926 ft 433 kts 309°
2026-05-06 13:46 43.58363 10.98957 35926 ft 434 kts 309°
2026-05-06 13:47 43.62680 10.93096 35931 ft 435 kts 309°
2026-05-06 13:47 43.66998 10.87221 35933 ft 436 kts 309°
2026-05-06 13:48 43.71316 10.81334 35931 ft 436 kts 309°
2026-05-06 13:48 43.75633 10.75435 35946 ft 437 kts 308°
2026-05-06 13:49 43.79951 10.69522 35948 ft 437 kts 308°
2026-05-06 13:49 43.84268 10.63598 35941 ft 437 kts 308°
2026-05-06 13:50 43.88576 10.57674 35951 ft 435 kts 308°
2026-05-06 13:50 43.92839 10.51799 35945 ft 434 kts 308°
2026-05-06 13:51 43.97118 10.45890 35946 ft 433 kts 308°
2026-05-06 13:51 44.01371 10.40003 35948 ft 430 kts 308°
2026-05-06 13:52 44.05591 10.34151 35939 ft 427 kts 308°
2026-05-06 13:52 44.09792 10.28310 35937 ft 426 kts 308°
2026-05-06 13:53 44.13971 10.22487 35941 ft 425 kts 307°
2026-05-06 13:53 44.18159 10.16637 35996 ft 428 kts 307°
2026-05-06 13:54 44.22406 10.10686 35947 ft 434 kts 307°
2026-05-06 13:54 44.26670 10.04710 35918 ft 435 kts 307°
2026-05-06 13:55 44.30945 9.98706 35917 ft 436 kts 307°
2026-05-06 13:55 44.35193 9.92726 35907 ft 436 kts 307°
2026-05-06 13:56 44.39487 9.86667 35892 ft 435 kts 307°
2026-05-06 13:56 44.43741 9.80652 35886 ft 434 kts 306°
2026-05-06 13:57 44.47963 9.74668 35881 ft 433 kts 306°
2026-05-06 13:57 44.52187 9.68666 35872 ft 432 kts 306°
2026-05-06 13:58 44.56402 9.62665 35864 ft 432 kts 306°
2026-05-06 13:58 44.60615 9.56650 35862 ft 432 kts 306°
2026-05-06 13:59 44.64835 9.50614 35848 ft 433 kts 306°
2026-05-06 13:59 44.69058 9.44559 35844 ft 435 kts 306°
2026-05-06 14:00 44.73295 9.38471 35858 ft 437 kts 306°
2026-05-06 14:00 44.77513 9.32401 35831 ft 436 kts 306°
2026-05-06 14:01 44.81765 9.26268 35851 ft 438 kts 306°
2026-05-06 14:01 44.86026 9.20103 35839 ft 440 kts 306°
2026-05-06 14:02 44.90301 9.13907 35835 ft 441 kts 306°
2026-05-06 14:02 44.94586 9.07684 35828 ft 442 kts 306°
2026-05-06 14:03 44.98841 9.01491 35832 ft 441 kts 306°
2026-05-06 14:03 45.03102 8.95275 35829 ft 439 kts 305°
2026-05-06 14:04 45.07350 8.89063 35829 ft 438 kts 305°
2026-05-06 14:04 45.11579 8.82863 35836 ft 437 kts 305°
2026-05-06 14:05 45.15799 8.76662 35831 ft 436 kts 305°
2026-05-06 14:05 45.20005 8.70465 35908 ft 436 kts 306°
2026-05-06 14:06 45.24176 8.64308 35935 ft 435 kts 306°
2026-05-06 14:06 45.28370 8.58104 35944 ft 436 kts 306°
2026-05-06 14:07 45.31887 8.52888 35948 ft 436 kts 306°
2026-05-06 14:07 45.36087 8.46648 35932 ft 437 kts 306°
2026-05-06 14:08 45.40271 8.40417 35911 ft 439 kts 306°
2026-05-06 14:08 45.44493 8.34115 35887 ft 440 kts 306°
2026-05-06 14:09 45.48722 8.27789 35840 ft 441 kts 306°
2026-05-06 14:09 45.52963 8.21431 35847 ft 443 kts 306°
2026-05-06 14:10 45.57224 8.15023 35860 ft 448 kts 306°
2026-05-06 14:10 45.61529 8.08536 35857 ft 450 kts 306°
2026-05-06 14:11 45.65819 8.02061 35860 ft 453 kts 306°
2026-05-06 14:11 45.70156 7.95497 35850 ft 455 kts 306°
2026-05-06 14:12 45.74470 7.88957 35853 ft 447 kts 306°
2026-05-06 14:12 45.78717 7.82500 35867 ft 445 kts 306°
2026-05-06 14:13 45.82947 7.76046 35887 ft 442 kts 306°
2026-05-06 14:13 45.87164 7.69598 35873 ft 443 kts 306°
2026-05-06 14:14 45.91393 7.63115 35882 ft 448 kts 306°
2026-05-06 14:14 45.95687 7.56520 35885 ft 454 kts 307°
2026-05-06 14:15 45.99962 7.49809 35908 ft 455 kts 305°
2026-05-06 14:15 46.04139 7.42978 35911 ft 455 kts 305°
2026-05-06 14:16 46.08287 7.36155 35903 ft 455 kts 305°
2026-05-06 14:16 46.12459 7.29311 35908 ft 454 kts 305°
2026-05-06 14:17 46.16621 7.22486 35914 ft 452 kts 306°
2026-05-06 14:17 46.20772 7.15667 35921 ft 452 kts 305°
2026-05-06 14:18 46.24921 7.08828 35917 ft 452 kts 305°
2026-05-06 14:18 46.29054 7.02002 35933 ft 452 kts 306°
2026-05-06 14:19 46.33204 6.95126 35909 ft 453 kts 306°
2026-05-06 14:19 46.37326 6.88290 35908 ft 448 kts 306°
2026-05-06 14:20 46.41420 6.81475 35925 ft 449 kts 306°
2026-05-06 14:20 46.45502 6.74660 35925 ft 452 kts 306°
2026-05-06 14:21 46.49631 6.67750 35919 ft 454 kts 306°
2026-05-06 14:21 46.53776 6.60800 35920 ft 456 kts 306°
2026-05-06 14:22 46.57943 6.53794 35926 ft 459 kts 306°
2026-05-06 14:22 46.62125 6.46748 35910 ft 460 kts 306°
2026-05-06 14:23 46.66297 6.39699 35908 ft 459 kts 306°
2026-05-06 14:23 46.70455 6.32656 35906 ft 458 kts 306°
2026-05-06 14:24 46.74570 6.25666 35907 ft 456 kts 306°
2026-05-06 14:24 46.78695 6.18640 35905 ft 455 kts 306°
2026-05-06 14:25 46.82805 6.11623 35906 ft 454 kts 307°
2026-05-06 14:25 46.86902 6.04609 35909 ft 453 kts 307°
2026-05-06 14:26 46.90987 5.97599 35912 ft 453 kts 307°
2026-05-06 14:26 46.95252 5.90801 35898 ft 456 kts 316°
2026-05-06 14:27 47.00578 5.85769 35907 ft 462 kts 329°
2026-05-06 14:27 47.06313 5.81483 35902 ft 463 kts 330°
2026-05-06 14:28 47.12056 5.77170 35892 ft 464 kts 329°
2026-05-06 14:28 47.17783 5.72774 35894 ft 465 kts 329°
2026-05-06 14:29 47.23517 5.68328 35889 ft 466 kts 329°
2026-05-06 14:29 47.29256 5.63867 35888 ft 467 kts 329°
2026-05-06 14:30 47.35000 5.59394 35875 ft 467 kts 329°
2026-05-06 14:30 47.40740 5.54915 35873 ft 466 kts 329°
2026-05-06 14:31 47.46471 5.50432 35873 ft 465 kts 329°
2026-05-06 14:31 47.51961 5.45438 35878 ft 463 kts 317°
2026-05-06 14:32 47.56281 5.38463 35873 ft 459 kts 304°
2026-05-06 14:32 47.60014 5.30820 35872 ft 457 kts 303°
2026-05-06 14:33 47.63717 5.23196 35873 ft 455 kts 303°
2026-05-06 14:33 47.67409 5.15677 35878 ft 453 kts 303°
2026-05-06 14:34 47.71129 5.08130 35886 ft 453 kts 304°
2026-05-06 14:34 47.74847 5.00575 35889 ft 453 kts 304°
2026-05-06 14:35 47.78566 4.92997 35885 ft 453 kts 304°
2026-05-06 14:35 47.82277 4.85412 35889 ft 452 kts 304°
2026-05-06 14:36 47.85967 4.77847 35889 ft 451 kts 304°
2026-05-06 14:36 47.89651 4.70274 35897 ft 451 kts 303°
2026-05-06 14:37 47.93307 4.62737 35898 ft 452 kts 304°
2026-05-06 14:37 47.96986 4.55133 35891 ft 452 kts 303°
2026-05-06 14:38 48.00665 4.47507 35894 ft 453 kts 303°
2026-05-06 14:38 48.04352 4.39842 35912 ft 455 kts 303°
2026-05-06 14:39 48.08044 4.32145 35894 ft 457 kts 303°
2026-05-06 14:39 48.11745 4.24409 35881 ft 457 kts 303°
2026-05-06 14:40 48.15433 4.16676 35891 ft 456 kts 303°
2026-05-06 14:40 48.19103 4.08959 35881 ft 455 kts 303°
2026-05-06 14:41 48.22767 4.01236 35887 ft 453 kts 303°
2026-05-06 14:41 48.26581 3.93714 35884 ft 453 kts 310°
2026-05-06 14:42 48.30941 3.86862 35885 ft 454 kts 313°
2026-05-06 14:42 48.35353 3.80089 35886 ft 453 kts 313°
2026-05-06 14:43 48.39714 3.73277 35888 ft 451 kts 312°
2026-05-06 14:43 48.44012 3.66478 35894 ft 450 kts 312°
2026-05-06 14:44 48.48323 3.59622 35899 ft 449 kts 312°
2026-05-06 14:45 48.54762 3.49351 35901 ft 449 kts 312°
2026-05-06 14:45 48.59045 3.42499 35894 ft 449 kts 312°
2026-05-06 14:46 48.63328 3.35630 35895 ft 449 kts 312°
2026-05-06 14:46 48.67609 3.28747 35902 ft 450 kts 312°
2026-05-06 14:47 48.71894 3.21837 35906 ft 451 kts 311°
2026-05-06 14:47 48.76150 3.14956 35899 ft 451 kts 311°
2026-05-06 14:48 48.80452 3.07984 35901 ft 452 kts 311°
2026-05-06 14:48 48.84898 3.01229 35898 ft 454 kts 320°
2026-05-06 14:49 48.90256 2.96128 35907 ft 456 kts 329°
2026-05-06 14:49 48.95803 2.91412 35906 ft 456 kts 329°
2026-05-06 14:50 49.01337 2.86642 35905 ft 457 kts 329°
2026-05-06 14:50 49.06851 2.81807 35909 ft 456 kts 329°
2026-05-06 14:51 49.12310 2.76984 35907 ft 455 kts 328°
2026-05-06 14:51 49.17785 2.72135 35909 ft 454 kts 328°
2026-05-06 14:52 49.23250 2.67284 35907 ft 454 kts 328°
2026-05-06 14:52 49.28698 2.62436 35905 ft 453 kts 328°
2026-05-06 14:53 49.33226 2.58399 35907 ft 452 kts 328°
2026-05-06 14:53 49.38659 2.53541 35917 ft 451 kts 328°
2026-05-06 14:54 49.44077 2.48687 35923 ft 451 kts 328°
2026-05-06 14:54 49.49472 2.43785 35926 ft 450 kts 324°
2026-05-06 14:55 49.54084 2.37385 35929 ft 446 kts 309°
2026-05-06 14:55 49.57971 2.29954 35937 ft 445 kts 307°
2026-05-06 14:56 49.61816 2.22472 35934 ft 445 kts 307°
2026-05-06 14:56 49.65698 2.15015 35936 ft 445 kts 308°
2026-05-06 14:57 49.69593 2.07582 35940 ft 445 kts 308°
2026-05-06 14:57 49.73487 2.00142 35935 ft 445 kts 308°
2026-05-06 14:58 49.77370 1.92698 35937 ft 445 kts 308°
2026-05-06 14:58 49.81250 1.85236 35940 ft 444 kts 307°
2026-05-06 14:59 49.85002 1.78000 35944 ft 444 kts 307°
2026-05-06 14:59 49.88837 1.70584 35947 ft 444 kts 308°
2026-05-06 15:00 49.92693 1.63106 35945 ft 443 kts 307°
2026-05-06 15:00 49.96539 1.55627 35946 ft 443 kts 307°
2026-05-06 15:01 50.00701 1.48588 35955 ft 443 kts 317°
2026-05-06 15:01 50.05378 1.42303 35955 ft 443 kts 318°
2026-05-06 15:02 50.10062 1.36048 35951 ft 443 kts 318°
2026-05-06 15:02 50.14716 1.29735 35952 ft 443 kts 317°
2026-05-06 15:02 50.17009 1.26600 35727 ft 447 kts 317°
2026-05-06 15:03 50.19357 1.23381 35425 ft 449 kts 317°
2026-05-06 15:03 50.21699 1.20166 34981 ft 447 kts 317°
2026-05-06 15:03 50.24025 1.16968 34584 ft 444 kts 317°
2026-05-06 15:03 50.26327 1.13800 34180 ft 439 kts 318°
2026-05-06 15:04 50.28606 1.10659 33739 ft 435 kts 318°
2026-05-06 15:04 50.30877 1.07527 33280 ft 433 kts 317°
2026-05-06 15:04 50.33130 1.04414 32865 ft 433 kts 317°
2026-05-06 15:04 50.35397 1.01278 32454 ft 437 kts 317°
2026-05-06 15:05 50.37681 0.98112 32034 ft 439 kts 317°
2026-05-06 15:05 50.39971 0.94936 31620 ft 442 kts 317°
2026-05-06 15:05 50.42288 0.91720 31203 ft 446 kts 317°
2026-05-06 15:05 50.44613 0.88487 30786 ft 447 kts 317°
2026-05-06 15:06 50.46962 0.85300 30369 ft 447 kts 319°
2026-05-06 15:06 50.49343 0.82150 29935 ft 449 kts 319°
2026-05-06 15:06 50.51740 0.78983 29442 ft 451 kts 319°
2026-05-06 15:06 50.54137 0.75794 28986 ft 451 kts 318°
2026-05-06 15:07 50.56526 0.72605 28520 ft 451 kts 318°
2026-05-06 15:07 50.58923 0.69410 28078 ft 451 kts 318°
2026-05-06 15:07 50.61310 0.66229 27620 ft 448 kts 318°
2026-05-06 15:07 50.63684 0.63060 27194 ft 448 kts 318°
2026-05-06 15:08 50.66075 0.59861 26740 ft 450 kts 318°
2026-05-06 15:08 50.68467 0.56657 26293 ft 452 kts 318°
2026-05-06 15:08 50.70863 0.53443 25846 ft 452 kts 318°
2026-05-06 15:08 50.73205 0.50298 25397 ft 443 kts 318°
2026-05-06 15:09 50.75530 0.47172 24965 ft 434 kts 318°
2026-05-06 15:09 50.77815 0.44095 24541 ft 430 kts 318°
2026-05-06 15:09 50.80090 0.41025 24132 ft 430 kts 318°
2026-05-06 15:09 50.82366 0.37948 23722 ft 429 kts 318°
2026-05-06 15:10 50.84256 0.35391 23345 ft 428 kts 318°
2026-05-06 15:10 50.86508 0.32337 22866 ft 425 kts 318°
2026-05-06 15:10 50.88733 0.29319 22439 ft 416 kts 318°
2026-05-06 15:10 50.90906 0.26366 22030 ft 408 kts 318°
2026-05-06 15:11 50.92354 0.24397 21752 ft 404 kts 318°
2026-05-06 15:11 50.92842 0.23734 21649 ft 402 kts 318°
2026-05-06 15:11 50.94741 0.21145 21287 ft 398 kts 318°
2026-05-06 15:11 50.96833 0.18293 20891 ft 394 kts 318°
2026-05-06 15:12 50.98887 0.15488 20489 ft 389 kts 318°
2026-05-06 15:12 51.00932 0.12694 20087 ft 384 kts 318°
2026-05-06 15:12 51.02993 0.10033 19793 ft 378 kts 322°
2026-05-06 15:12 51.05106 0.07638 19568 ft 369 kts 324°
2026-05-06 15:13 51.07207 0.05367 19339 ft 364 kts 324°
2026-05-06 15:13 51.09293 0.03129 19110 ft 359 kts 324°
2026-05-06 15:13 51.11347 0.00909 18899 ft 357 kts 324°
2026-05-06 15:13 51.13398 -0.01331 18671 ft 357 kts 324°
2026-05-06 15:14 51.15439 -0.03575 18440 ft 356 kts 324°
2026-05-06 15:14 51.17468 -0.05819 18211 ft 356 kts 323°
2026-05-06 15:14 51.19490 -0.08064 18038 ft 355 kts 323°
2026-05-06 15:14 51.21532 -0.10337 17996 ft 355 kts 323°
2026-05-06 15:15 51.23542 -0.12576 17994 ft 351 kts 323°
2026-05-06 15:15 51.25544 -0.14810 17998 ft 352 kts 323°
2026-05-06 15:15 51.27559 -0.17062 18001 ft 354 kts 323°
2026-05-06 15:15 51.29554 -0.19293 17988 ft 354 kts 323°
2026-05-06 15:16 51.31570 -0.21550 17993 ft 354 kts 323°
2026-05-06 15:16 51.33582 -0.23806 17995 ft 354 kts 323°
2026-05-06 15:16 51.35601 -0.26071 17984 ft 353 kts 323°
2026-05-06 15:16 51.37589 -0.28302 17781 ft 347 kts 323°
2026-05-06 15:17 51.39462 -0.30407 17395 ft 345 kts 323°
2026-05-06 15:17 51.41506 -0.32428 16839 ft 348 kts 336°
2026-05-06 15:17 51.43865 -0.33209 16660 ft 342 kts 356°
2026-05-06 15:17 51.46202 -0.32764 16428 ft 338 kts 15°
2026-05-06 15:18 51.48377 -0.31334 16028 ft 338 kts 22°
2026-05-06 15:18 51.50502 -0.29699 15579 ft 338 kts 24°
2026-05-06 15:18 51.52608 -0.28027 15201 ft 337 kts 24°
2026-05-06 15:18 51.54706 -0.26365 14845 ft 334 kts 24°
2026-05-06 15:19 51.56756 -0.24755 14487 ft 332 kts 23°
2026-05-06 15:19 51.58861 -0.23117 14154 ft 330 kts 23°
2026-05-06 15:19 51.60814 -0.21605 14062 ft 321 kts 23°
2026-05-06 15:19 51.62805 -0.20067 13895 ft 313 kts 23°
2026-05-06 15:20 51.64730 -0.18582 13698 ft 302 kts 23°
2026-05-06 15:20 51.66610 -0.17133 13206 ft 299 kts 23°
2026-05-06 15:20 51.68491 -0.15684 12826 ft 298 kts 23°
2026-05-06 15:20 51.70347 -0.14253 12603 ft 294 kts 23°
2026-05-06 15:21 51.72151 -0.12860 12388 ft 289 kts 23°
2026-05-06 15:21 51.73952 -0.11466 12199 ft 285 kts 22°
2026-05-06 15:21 51.75733 -0.10106 12001 ft 280 kts 21°
2026-05-06 15:21 51.77498 -0.08855 11818 ft 274 kts 20°
2026-05-06 15:22 51.79234 -0.07652 11644 ft 271 kts 20°
2026-05-06 15:22 51.80982 -0.06446 11505 ft 277 kts 20°
2026-05-06 15:22 51.82781 -0.05199 11312 ft 282 kts 20°
2026-05-06 15:22 51.84586 -0.03942 11089 ft 283 kts 21°
2026-05-06 15:23 51.86391 -0.02677 10862 ft 284 kts 21°
2026-05-06 15:23 51.88214 -0.01398 10506 ft 286 kts 21°
2026-05-06 15:23 51.90038 -0.00115 10162 ft 285 kts 21°
2026-05-06 15:23 51.91836 0.01152 9834 ft 285 kts 21°
2026-05-06 15:24 51.93605 0.02620 9444 ft 285 kts 20°
2026-05-06 15:24 51.95518 0.03147 9044 ft 277 kts 354°
2026-05-06 15:24 51.97312 0.02214 8661 ft 270 kts 327°
2026-05-06 15:24 51.98598 0.00067 8295 ft 266 kts 300°
2026-05-06 15:25 51.99093 -0.02770 7926 ft 264 kts 271°
2026-05-06 15:25 51.98693 -0.05631 7564 ft 262 kts 242°
2026-05-06 15:25 51.97502 -0.07807 7215 ft 259 kts 212°
2026-05-06 15:25 51.95840 -0.08744 6907 ft 252 kts 182°
2026-05-06 15:26 51.94125 -0.08580 6637 ft 244 kts 172°
2026-05-06 15:26 51.92486 -0.08249 6352 ft 237 kts 171°
2026-05-06 15:26 51.90855 -0.07908 6041 ft 237 kts 171°
2026-05-06 15:26 51.89207 -0.07552 5752 ft 240 kts 171°
2026-05-06 15:27 51.87544 -0.07185 5460 ft 242 kts 171°
2026-05-06 15:27 51.85868 -0.06810 5179 ft 243 kts 171°
2026-05-06 15:27 51.84187 -0.06429 4897 ft 244 kts 171°
2026-05-06 15:27 51.82501 -0.06040 4654 ft 244 kts 171°
2026-05-06 15:28 51.80830 -0.05650 4407 ft 242 kts 171°
2026-05-06 15:28 51.79169 -0.05257 4138 ft 240 kts 171°
2026-05-06 15:28 51.77531 -0.04861 3864 ft 235 kts 170°
2026-05-06 15:28 51.76068 -0.03872 3561 ft 225 kts 137°
2026-05-06 15:29 51.75242 -0.01879 3354 ft 208 kts 101°
2026-05-06 15:29 51.75256 0.00315 3189 ft 188 kts 73°
2026-05-06 15:29 51.75568 0.02329 3048 ft 185 kts 71°
2026-05-06 15:29 51.76017 0.04240 2988 ft 180 kts 48°
2026-05-06 15:30 51.76848 0.05709 2994 ft 177 kts 45°
2026-05-06 15:30 51.77681 0.07137 2991 ft 173 kts 41°
2026-05-06 15:30 51.78530 0.08457 2873 ft 163 kts 40°
2026-05-06 15:30 51.79323 0.09659 2668 ft 155 kts 39°
2026-05-06 15:31 51.80077 0.10798 2511 ft 141 kts 39°
2026-05-06 15:31 51.80787 0.11866 2307 ft 142 kts 39°
2026-05-06 15:31 51.81508 0.12951 2101 ft 140 kts 39°
2026-05-06 15:32 51.82890 0.15035 1729 ft 137 kts 39°
2026-05-06 15:32 51.83593 0.16093 1527 ft 139 kts 39°
2026-05-06 15:32 51.84292 0.17149 1332 ft 138 kts 38°
2026-05-06 15:32 51.84988 0.18197 1136 ft 137 kts 39°
2026-05-06 15:33 51.85679 0.19236 939 ft 134 kts 39°
2026-05-06 15:33 51.86363 0.20266 761 ft 135 kts 40°
2026-05-06 15:33 51.87055 0.21309 540 ft 137 kts 43°
2026-05-06 15:33 51.87727 0.22320 360 ft 126 kts 41°
2026-05-06 15:34 51.88322 0.23211 339 ft 100 kts 43°
2026-05-06 15:34 51.88726 0.23815 335 ft 60 kts 43°
2026-05-06 15:34 51.88977 0.24198 338 ft 37 kts 47°
2026-05-06 15:34 51.89091 0.24504 338 ft 28 kts 67°
2026-05-06 15:35 51.89133 0.24669 350 ft 12 kts 68°
2026-05-06 15:35 51.89154 0.24752 352 ft 2 kts 68°
2026-05-06 15:35 51.89157 0.24766 352 ft 1 kts 69°
2026-05-06 15:35 51.89160 0.24779 344 ft 1 kts 70°
2026-05-06 15:36 51.89162 0.24790 352 ft 0 kts 71°
2026-05-06 15:37 51.89167 0.24849 347 ft 10 kts 100°
2026-05-06 15:37 51.89164 0.24949 355 ft 9 kts 65°
2026-05-06 15:37 51.89206 0.25028 348 ft 9 kts 47°
2026-05-06 15:38 51.89230 0.25082 351 ft 9 kts 59°
2026-05-06 15:38 51.89221 0.25204 352 ft 9 kts 130°
2026-05-06 15:38 51.89181 0.25276 348 ft 8 kts 132°
2026-05-06 15:38 51.89141 0.25345 351 ft 8 kts 134°
2026-05-06 15:39 51.89125 0.25374 355 ft 3 kts 123°
2026-05-06 15:39 51.89122 0.25396 351 ft 3 kts 100°
2026-05-06 15:39 51.89131 0.25427 348 ft 3 kts 56°
2026-05-06 15:39 51.89145 0.25458 352 ft 3 kts 54°
2026-05-06 15:40 51.89158 0.25488 350 ft 2 kts 54°
2026-05-06 15:40 51.89160 0.25493 350 ft 0 kts 54°